You are here:

home

Questo sito é stato creato esclusivamente per valorizzare il lavoro svolto dall' intero
155° Gruppo E.T.S. del' Aeronautica Militare e non ha nessun fine commerciale ne di lucro. 
Pertanto, l' utilizzo delle foto é consentito solo per uso PRIVATO.

 

 
In alto

LIMS - Piacenza, San Damiano

[source: ADDS]
METAR
LIMS 021755Z 13006KT CAVOK 21/15 Q1011 RMK SKC VIS MIN 9999 WIND THR30 11004KT BLU =
TAF
TAF LIMS 021400Z 0215/0224 VRB05KT CAVOK TEMPO 9999 FEW070 =
In alto
WEB MASTER
Paolo "paolopaso" Pasotti
______________________________________
Last Update: 25/02/2011
_____________________________________________________________________________________________________________
© 2010 / 2011 - Tutti i diritti riservati
 
 
In alto